GSTAR 1 1 15677U 85035A 21065.51916716 -.00000124 00000-0 00000-0 0 9995 2 15677 14.9618 4.0799 0009854 33.1200 209.0291 1.00272510105862 TELECOM 1B 1 15678U 85035B 21065.05194814 -.00000224 00000-0 00000-0 0 9993 2 15678 13.1545 335.9734 0004958 29.7629 149.2228 1.00304468117679 ARIANE 3 DEB [SYLDA] 1 15680U 85035D 21065.22548672 .00029753 00000-0 24957-2 0 9996 2 15680 6.8106 6.5991 3266080 269.0559 54.0623 8.76998252640842